Weather History for Hamilton, OH

Change the Weather History Date:

Tuesday, December 18, 2012

  Actual Average (KCVG) Record (KCVG)
Temperature  
Mean Temperature 37 °F 33 °F  
Max Temperature 44 °F 41 °F 67 °F (1877)
Min Temperature 30 °F 26 °F -3 °F (1989)
Degree Days  
Heating Degree Days 28 32  
Month to date heating degree days 529  
Since 1 July heating degree days 1489  
Cooling Degree Days 0 0  
Month to date cooling degree days 0  
Year to date cooling degree days 1121  
Moisture  
Dew Point 36 °F    
Average Humidity 86    
Maximum Humidity 93    
Minimum Humidity 73    
Precipitation  
Precipitation 0.04 in 0.10 in 2.04 in (1990)
Month to date precipitation 1.95  
Year to date precipitation 41.10  
Snow  
Snow 0.00 in 0.10 in 3.80 in (1951)
Month to date snowfall 2.3  
Since 1 July snowfall 3.1  
Snow Depth -    
Sea Level Pressure  
Sea Level Pressure 29.78 in    
Wind  
Wind Speed 6 mph (West)    
Max Wind Speed 12 mph    
Max Gust Speed -    
Visibility 7 miles    
Events Rain    
T = Trace of Precipitation, MM = Missing Value Source: NWS Daily Summary

Daily Weather History Graph

Daily Weather History Graph

Search for Another Location

Airport:

Trip Planner

Search our weather history database for the weather conditions in past years. The results will help you decide how hot, cold, wet, or windy it might be!

Date:

Astronomy

Dec. 18, 2012 Rise Set
Actual Time 7:53 AM EST 5:16 PM EST
Civil Twilight 7:22 AM EST 5:47 PM EST
Nautical Twilight 6:49 AM EST 6:20 PM EST
Astronomical Twilight 6:16 AM EST 6:53 PM EST
Moon 11:34 AM EST 11:40 PM EST
Length of Visible Light 10h 24m
Length of Day
9h 23m
Waxing Crescent, 34% of the Moon is Illuminated
Dec 18
Waxing Crescent
Dec 20
First Quarter
Dec 28
Full
Jan 4
Last Quarter
Jan 11
New

Hourly Weather History & Observations

Time (EST) Temp. Windchill Dew Point Humidity Pressure Visibility Wind Dir Wind Speed Gust Speed Precip Events Conditions
12:15 AM 44.6 °F 40.7 °F 42.8 °F 93% 29.63 in 7.0 mi NW 6.9 mph - 0.00 in   Overcast
12:53 AM 44.1 °F 40.8 °F 42.1 °F 93% 29.65 in 8.0 mi WNW 5.8 mph - 0.00 in   Overcast
1:53 AM 43.0 °F 38.8 °F 41.0 °F 93% 29.68 in 9.0 mi NW 6.9 mph - N/A   Overcast
2:18 AM 42.8 °F 36.6 °F 39.2 °F 87% 29.68 in 4.0 mi NW 11.5 mph - 0.00 in Rain Light Rain
2:53 AM 41.0 °F 35.2 °F 37.9 °F 89% 29.71 in 5.0 mi NNW 9.2 mph - 0.02 in Rain Rain
3:53 AM 41.0 °F 37.1 °F 37.9 °F 89% 29.73 in 6.0 mi WNW 5.8 mph - 0.00 in Rain Light Rain
4:33 AM 41.0 °F 37.1 °F 37.4 °F 87% 29.73 in 5.0 mi NW 5.8 mph - 0.01 in Rain Light Rain
4:41 AM 39.2 °F 34.2 °F 37.4 °F 93% 29.73 in 5.0 mi NW 6.9 mph - 0.01 in Rain Light Rain
4:53 AM 39.9 °F 35.8 °F 37.9 °F 93% 29.75 in 6.0 mi NW 5.8 mph - 0.01 in Rain Light Rain
5:04 AM 41.0 °F 36.4 °F 37.4 °F 87% 29.74 in 6.0 mi WNW 6.9 mph - 0.00 in   Overcast
5:53 AM 39.9 °F 34.5 °F 37.0 °F 89% 29.78 in 6.0 mi NW 8.1 mph - 0.01 in Rain Light Rain
6:23 AM 39.2 °F 35.0 °F 37.4 °F 93% 29.78 in 7.0 mi WNW 5.8 mph - 0.00 in   Overcast
6:39 AM 39.2 °F 35.9 °F 37.4 °F 93% 29.79 in 6.0 mi WNW 4.6 mph - 0.00 in   Overcast
6:53 AM 39.9 °F 35.8 °F 37.0 °F 89% 29.81 in 6.0 mi WNW 5.8 mph - 0.00 in   Overcast
7:53 AM 39.9 °F 35.8 °F 37.0 °F 89% 29.83 in 6.0 mi West 5.8 mph - N/A   Overcast
8:53 AM 39.9 °F 36.7 °F 36.0 °F 86% 29.86 in 6.0 mi West 4.6 mph - N/A   Overcast
9:53 AM 39.9 °F 35.1 °F 35.1 °F 83% 29.88 in 7.0 mi West 6.9 mph - N/A   Overcast
10:53 AM 39.9 °F 33.9 °F 33.1 °F 77% 29.91 in 10.0 mi West 9.2 mph - N/A   Overcast
11:53 AM 39.9 °F 35.8 °F 34.0 °F 79% 29.89 in 9.0 mi WSW 5.8 mph - N/A   Overcast
1:53 PM 41.0 °F 35.8 °F 34.0 °F 76% 29.87 in 10.0 mi WSW 8.1 mph - N/A   Overcast
2:53 PM 42.1 °F 35.7 °F 34.0 °F 73% 29.86 in 10.0 mi SSW 11.5 mph - N/A   Overcast
3:53 PM 41.0 °F 35.8 °F 35.1 °F 79% 29.86 in 10.0 mi SW 8.1 mph - N/A   Overcast
4:53 PM 41.0 °F 37.1 °F 34.0 °F 76% 29.83 in 10.0 mi Variable 5.8 mph - N/A   Overcast
5:16 PM 41.0 °F 37.1 °F 33.8 °F 76% 29.79 in 10.0 mi South 5.8 mph - N/A   Mostly Cloudy
5:53 PM 41.0 °F 36.4 °F 34.0 °F 76% 29.77 in 10.0 mi SSE 6.9 mph - N/A   Clear
6:53 PM 41.0 °F 37.1 °F 35.1 °F 79% 29.77 in 10.0 mi South 5.8 mph - N/A   Clear
7:53 PM 39.9 °F - 35.1 °F 83% 29.80 in 10.0 mi Calm Calm - N/A   Clear
8:53 PM 34.0 °F - 30.9 °F 89% 29.80 in 9.0 mi Calm Calm - N/A   Clear
9:53 PM 30.9 °F - 28.9 °F 92% 29.81 in 6.0 mi Calm Calm - N/A   Clear
10:53 PM 30.0 °F - 28.0 °F 92% 29.80 in 4.0 mi Calm Calm - N/A   Clear
11:53 PM 30.9 °F - 28.0 °F 89% 29.81 in 7.0 mi Calm Calm - N/A   Clear